AirNav   ATP
 
 1593 users online  

CA84 Torrey Pines Gliderport
San Diego, California, USA

GOING TO SAN DIEGO?


FAA INFORMATION EFFECTIVE 17 AUGUST 2017

Location

FAA Identifier: CA84
Lat/Long: 32-53-23.0000N / 117-14-49.0000W
32-53.383333N / 117-14.816667W
32.8897222 / -117.2469444
(estimated)
Elevation: 372 ft. / 113 m (estimated)
Variation: 13E (1985)
From city: 11 miles NW of SAN DIEGO, CA
Time zone: UTC -7 (UTC -8 during Standard Time)
Zip code: 92037

Gliderport Operations

Gliderport use: Private use. Permission required prior to landing
Activation date: 11/1961
Control tower: no
ARTCC: LOS ANGELES CENTER
FSS: SAN DIEGO FLIGHT SERVICE STATION
Attendance: UNATNDD
Wind indicator: no
Segmented circle: no

Gliderport Communications

WX ASOS at MYF (7 nm SE): PHONE 858-576-4337
WX ASOS at SAN (10 nm S): PHONE 619-296-8934
WX AWOS-3P at SEE (14 nm E): 125.45 (619-449-1228)
WX ASOS at CRQ (14 nm N): PHONE 760-930-0864
WX ASOS at RNM (19 nm NE): 132.025 (760-789-0736)

Nearby radio navigation aids

VOR radial/distance  VOR name  Freq  Var
MZBr335/6.5MISSION BAY VORTAC117.8015E
PGYr307/21.5POGGI VORTAC109.8014E
OCNr143/22.7OCEANSIDE VORTAC115.3015E
TIJr311/25.7TIJUANA VOR/DME116.5014E
JLIr231/36.5JULIAN VORTAC114.0015E

Gliderport Services

Airframe service: NONE
Powerplant service: NONE

Runway Information

Runway 9/27

Dimensions: 1500 x 30 ft. / 457 x 9 m
Surface: asphalt
RUNWAY 9  RUNWAY 27
Traffic pattern: leftleft
Obstructions: nonetrees, 100 ft. from runway

Gliderport Ownership and Management from official FAA records

Ownership: Publicly-owned
Owner: CITY OF SAN DIEGO
Manager: JIM FROST
4740 HARBINSON AVE
LA MESA, CA 91941
Phone 619-461-9614
WORK PHONE 619-535-9505 EXT 1585

Additional Remarks

GLIDER PORT IS LEASED FM CITY TO THE ASSOCD GLIDER CLUB OF SOUTHERN CALIF FOR STUDENT TRAINING & RIDGE SOARING.
ALL ACFT ARE TRAILERED GLIDERS.
ROLLING RWY .6 PERCENT GRADIENT.
EXTENSIVE HANG GLIDER OPERATIONS ON WEEKENDS AND WEEKDAYS.

Instrument Procedures

There are no published instrument procedures at CA84.

Some nearby airports with instrument procedures:

KNKX - Miramar Marine Corps Air Station (5 nm E)
KMYF - Montgomery-Gibbs Executive Airport (7 nm SE)
KSAN - San Diego International Airport (10 nm S)
KNZY - North Island Naval Air Station (Halsey Field) (12 nm S)
KSEE - Gillespie Field Airport (14 nm E)
KCRQ - Mc Clellan-Palomar Airport (14 nm N)
KRNM - Ramona Airport (19 nm NE)
 
Loc | Ops | Rwys | IFR | FBO | Links
Com | Nav | Svcs | Stats | Notes


 
Area around CA84 (Torrey Pines Gliderport)
 
Road maps at: MapQuest Bing Google
 
Aerial photo
WARNING: Photo may not be current or correct
Aerial photo of CA84 (Torrey Pines Gliderport)
Photo by Doug Fronius
Photo taken 13-Mar-2004
from a 1942 Schweizer TG-2 sailplane.

Do you have a better or more recent aerial photo of Torrey Pines Gliderport that you would like to share? If so, please send us your photo.

 
Sectional chart

 
Airport distance calculator
Flying to Torrey Pines Gliderport? Find the distance to fly.

From to CA84

Sunrise and sunset
Times for 22-Aug-2017
 Local
(UTC-7)
 Zulu
(UTC)
Morning civil twilight05:5212:52
Sunrise06:1813:18
Sunset19:2602:26
Evening civil twilight19:5102:51

Current date and time
Zulu (UTC)  22-Aug-2017 16:42:46
Local (UTC-7)  22-Aug-2017 09:42:46
 
METAR
KNKX 
6nm E 
221555Z VRB03KT 10SM OVC012 23/16 A3003 RMK AO2 SLP164 T02280161 $
KMYF 
7nm SE 
221553Z 29004KT 9SM OVC013 22/17 A3004 RMK AO2 SLP166 T02220167
KSAN 
10nm S 
221551Z 32005KT 10SM OVC015 22/17 A3004 RMK AO2 SLP172 T02170172
KNZY 
11nm S 
221552Z 33006KT 10SM OVC014 22/17 A3002 RMK SLP166 T02170172
KCRQ 
15nm N 
221553Z AUTO VRB03KT 8SM OVC011 19/17 A3003 RMK AO2 SLP165 T01940172
KSEE 
15nm E 
221547Z 00000KT 7SM OVC012 20/17 A3005
KRNM 
19nm NE 
221553Z 25003KT 10SM FEW003 19/16 A3005 RMK AO2 SLP164 T01940161
TAF
KNKX 
6nm E 
2215/2315 VRB05KT 9999 OVC010 QNH3000INS BECMG 2215/2217 30008KT 9999 FEW020 QNH2994INS BECMG 2305/2307 VRB05KT 9999 FEW020 QNH2994INS T27/2221Z T19/2313Z
KSAN 
10nm S 
221431Z 2215/2318 33007KT P6SM BKN014 FM221600 30006KT P6SM SCT015 FM221900 30010KT P6SM SKC FM230200 VRB04KT P6SM SCT020 FM230600 VRB03KT P6SM BKN018 FM231630 VRB04KT P6SM SCT020
KNZY 
11nm S 
2215/2315 VRB06KT 9999 OVC015 QNH2999INS BECMG 2217/2219 30011KT 9999 SCT020 QNH2994INS BECMG 2302/2304 VRB06KT 9999 BKN015 QNH2996INS T24/2221Z T18/2313Z COR 1512 FS30022
KCRQ 
15nm N 
221432Z 2215/2312 VRB04KT P6SM FEW011 TEMPO 2215/2216 BKN010 FM221900 26009KT P6SM SKC FM230200 VRB04KT P6SM SCT015 FM230600 VRB03KT P6SM BKN015
NOTAMs
Click for the latest NOTAMs
NOTAMs are issued by the DoD/FAA and will open in a separate window not controlled by AirNav.

 

 
 

Would you like to see your business listed on this page?

 If your business provides an interesting product or service to pilots, flight crews, aircraft, or users of the Torrey Pines Gliderport, you should consider listing it here.  To start the listing process, click on the button below
 
Add a business
 

Other Pages about Torrey Pines Gliderport

www.agcsc.org/torrey_pines_info.html
 
Update a link
 
Copyright © AirNav, LLC. All rights reserved. Privacy Policy  Contact